Location: Chacón
(10.5789°N, 66.9317°W)
Time: 20:19:47
(UTC+00:00)

Sakura Rocket - Pass Details

Date: 17 August 2024
Orbit: 475 x 1710 km, 28.7° (Epoch: 09 September)

Event Time Altitude Azimuth Distance (km) Brightness Sun altitude
Rises 23:21:54 0° 255° (WSW) 3,337 7.9 -9.6°
Reaches altitude 10° 23:24:52 10° 262° (W) 2,204 7.1 -10.3°
Maximum altitude 23:29:32 40° 331° (NNW) 880 4.2 -11.4°
Drops below altitude 10° 23:33:16 10° 43° (NE) 1,749 5.1 -12.3°
Enters shadow 23:34:31 - 48° (NE) 2,222 5.6 -12.6°
